Hourly Weather Abancay

Today, 30 October, Friday

Time Temperature Precipitation Wind Pressure Humidity
00:00 +14°C° 0 mm 1 mps 543 mmHg 91%
01:00 +14°C° 0 mm 1 mps 542 mmHg 91%
02:00 +14°C° 0 mm 1 mps 542 mmHg 91%
03:00 +12°C° 0 mm 0 mps 542 mmHg 91%
04:00 +12°C° 0 mm 0 mps 542 mmHg 91%
05:00 +13°C° 0 mm 0 mps 543 mmHg 87%
06:00 +13°C° 0 mm 0 mps 543 mmHg 83%
07:00 +14°C° 0 mm 0 mps 544 mmHg 79%
08:00 +18°C° 0 mm 1 mps 545 mmHg 69%
09:00 +18°C° 0 mm 2 mps 546 mmHg 59%
10:00 +20°C° 0 mm 3 mps 547 mmHg 50%
11:00 +21°C° 0.1 mm 3 mps 546 mmHg 47%
12:00 +22°C° 0.1 mm 3 mps 546 mmHg 43%
13:00 +24°C° 0.1 mm 3 mps 546 mmHg 40%
14:00 +22°C° 0.1 mm 3 mps 545 mmHg 43%
15:00 +22°C° 0.1 mm 3 mps 545 mmHg 46%
16:00 +21°C° 0.1 mm 3 mps 544 mmHg 49%
17:00 +19°C° 0.4 mm 3 mps 544 mmHg 61%
18:00 +18°C° 0.4 mm 2 mps 543 mmHg 72%
19:00 +16°C° 0.4 mm 2 mps 543 mmHg 83%
20:00 +15°C° 0.4 mm 2 mps 543 mmHg 86%
21:00 +15°C° 0.4 mm 2 mps 544 mmHg 88%
22:00 +15°C° 0.4 mm 2 mps 544 mmHg 91%
23:00 +14°C° 0.1 mm 2 mps 544 mmHg 92%

Tomorrow, 31 October, Saturday

Time Temperature Precipitation Wind Pressure Humidity
00:00 +14°C° 0.1 mm 1 mps 543 mmHg 92%
01:00 +14°C° 0.1 mm 1 mps 543 mmHg 93%
02:00 +13°C° 0 mm 1 mps 543 mmHg 92%
03:00 +13°C° 0 mm 1 mps 543 mmHg 92%
04:00 +13°C° 0 mm 1 mps 543 mmHg 92%
05:00 +14°C° 0 mm 1 mps 543 mmHg 88%
06:00 +14°C° 0 mm 1 mps 544 mmHg 85%
07:00 +15°C° 0 mm 1 mps 544 mmHg 82%
08:00 +16°C° 0.2 mm 1 mps 545 mmHg 75%
09:00 +18°C° 0.2 mm 2 mps 546 mmHg 67%
10:00 +19°C° 0.2 mm 2 mps 546 mmHg 60%
11:00 +20°C° 0.8 mm 3 mps 546 mmHg 60%
12:00 +20°C° 0.8 mm 3 mps 545 mmHg 60%
13:00 +21°C° 0.8 mm 4 mps 545 mmHg 60%
14:00 +20°C° 0.8 mm 4 mps 545 mmHg 62%
15:00 +20°C° 0.8 mm 4 mps 544 mmHg 64%
16:00 +19°C° 0.8 mm 4 mps 544 mmHg 67%
17:00 +18°C° 0.3 mm 3 mps 544 mmHg 74%
18:00 +16°C° 0.3 mm 3 mps 544 mmHg 82%
19:00 +15°C° 0.3 mm 2 mps 544 mmHg 89%
20:00 +14°C° 0.2 mm 2 mps 545 mmHg 90%
21:00 +14°C° 0.2 mm 2 mps 545 mmHg 90%
22:00 +14°C° 0.2 mm 1 mps 545 mmHg 91%
23:00 +13°C° 0.4 mm 1 mps 545 mmHg 91%

Day after tomorrow, 1 November, Sunday

Time Temperature Precipitation Wind Pressure Humidity
00:00 +13°C° 0.4 mm 1 mps 544 mmHg 91%
01:00 +13°C° 0.4 mm 1 mps 544 mmHg 90%
02:00 +13°C° 0 mm 1 mps 543 mmHg 90%
03:00 +12°C° 0 mm 0 mps 543 mmHg 90%
04:00 +11°C° 0 mm 0 mps 543 mmHg 90%
05:00 +12°C° 0 mm 0 mps 543 mmHg 85%
06:00 +13°C° 0 mm 0 mps 544 mmHg 80%
07:00 +15°C° 0 mm 1 mps 545 mmHg 76%
08:00 +16°C° 0.1 mm 1 mps 545 mmHg 70%
09:00 +18°C° 0.1 mm 2 mps 546 mmHg 65%
10:00 +19°C° 0.1 mm 3 mps 546 mmHg 60%
11:00 +20°C° 0.4 mm 3 mps 546 mmHg 57%
12:00 +21°C° 0.4 mm 3 mps 545 mmHg 55%
13:00 +22°C° 0.4 mm 4 mps 545 mmHg 52%
14:00 +21°C° 0.5 mm 4 mps 545 mmHg 54%
15:00 +21°C° 0.5 mm 4 mps 544 mmHg 57%
16:00 +20°C° 0.5 mm 4 mps 544 mmHg 59%
17:00 +18°C° 0.3 mm 3 mps 543 mmHg 69%
18:00 +17°C° 0.3 mm 3 mps 543 mmHg 79%
19:00 +15°C° 0.3 mm 2 mps 543 mmHg 89%
20:00 +15°C° 0.1 mm 2 mps 543 mmHg 91%
21:00 +14°C° 0.1 mm 2 mps 543 mmHg 92%
22:00 +14°C° 0.1 mm 2 mps 544 mmHg 94%
23:00 +14°C° 0.1 mm 2 mps 543 mmHg 93%

2 November, Monday

Time Temperature Precipitation Wind Pressure Humidity
00:00 +14°C° 0.1 mm 2 mps 543 mmHg 93%
01:00 +13°C° 0.1 mm 2 mps 542 mmHg 93%
02:00 +13°C° 0.1 mm 1 mps 542 mmHg 93%
03:00 +13°C° 0.1 mm 1 mps 542 mmHg 92%
04:00 +13°C° 0.1 mm 1 mps 542 mmHg 92%
05:00 +13°C° 0 mm 1 mps 542 mmHg 90%
06:00 +13°C° 0 mm 1 mps 543 mmHg 89%
07:00 +14°C° 0 mm 1 mps 543 mmHg 87%
08:00 +14°C° 0.2 mm 2 mps 543 mmHg 84%
09:00 +15°C° 0.2 mm 2 mps 543 mmHg 81%
10:00 +16°C° 0.2 mm 2 mps 544 mmHg 77%
11:00 +17°C° 0.5 mm 3 mps 544 mmHg 71%
12:00 +19°C° 0.5 mm 3 mps 544 mmHg 66%
13:00 +20°C° 0.5 mm 3 mps 544 mmHg 60%
14:00 +20°C° 0.7 mm 3 mps 543 mmHg 61%
15:00 +19°C° 0.7 mm 3 mps 542 mmHg 62%
16:00 +19°C° 0.7 mm 3 mps 542 mmHg 64%
17:00 +17°C° 0 mm 3 mps 542 mmHg 72%
18:00 +16°C° 0 mm 2 mps 542 mmHg 81%
19:00 +14°C° 0 mm 2 mps 541 mmHg 90%
20:00 +14°C° 0 mm 2 mps 542 mmHg 91%
21:00 +14°C° 0 mm 2 mps 542 mmHg 92%
22:00 +13°C° 0 mm 2 mps 543 mmHg 92%
23:00 +13°C° 0 mm 2 mps 542 mmHg 92%

3 November, Tuesday

Time Temperature Precipitation Wind Pressure Humidity
00:00 +13°C° 0 mm 2 mps 542 mmHg 92%
01:00 +13°C° 0 mm 1 mps 542 mmHg 92%
02:00 +13°C° 0.1 mm 1 mps 542 mmHg 91%
03:00 +13°C° 0.1 mm 1 mps 542 mmHg 90%
04:00 +13°C° 0.1 mm 1 mps 542 mmHg 89%
05:00 +13°C° 0.1 mm 1 mps 542 mmHg 88%
06:00 +13°C° 0.1 mm 1 mps 543 mmHg 86%
07:00 +13°C° 0.1 mm 1 mps 543 mmHg 84%
08:00 +15°C° 0.1 mm 2 mps 544 mmHg 76%
09:00 +17°C° 0.1 mm 2 mps 545 mmHg 69%
10:00 +18°C° 0.1 mm 3 mps 545 mmHg 61%
11:00 +19°C° 0.4 mm 3 mps 545 mmHg 58%
12:00 +20°C° 0.4 mm 3 mps 545 mmHg 54%
13:00 +21°C° 0.4 mm 3 mps 545 mmHg 50%
14:00 +21°C° 0.5 mm 3 mps 544 mmHg 53%
15:00 +20°C° 0.5 mm 3 mps 544 mmHg 56%
16:00 +20°C° 0.5 mm 3 mps 543 mmHg 58%
17:00 +18°C° 0 mm 3 mps 543 mmHg 68%
18:00 +16°C° 0 mm 3 mps 543 mmHg 77%
19:00 +14°C° 0 mm 2 mps 543 mmHg 87%
20:00 +14°C° 0.1 mm 2 mps 543 mmHg 88%
21:00 +14°C° 0.1 mm 2 mps 544 mmHg 90%
22:00 +14°C° 0.1 mm 2 mps 544 mmHg 91%
23:00 +13°C° 0.1 mm 2 mps 544 mmHg 92%

4 November, Wednesday

Time Temperature Precipitation Wind Pressure Humidity
00:00 +13°C° 0.1 mm 2 mps 543 mmHg 93%
01:00 +13°C° 0.1 mm 2 mps 543 mmHg 93%
02:00 +13°C° 0.1 mm 1 mps 543 mmHg 93%
03:00 +12°C° 0.1 mm 1 mps 543 mmHg 92%
04:00 +11°C° 0.1 mm 0 mps 543 mmHg 92%
05:00 +12°C° 0.1 mm 0 mps 543 mmHg 88%
06:00 +13°C° 0.1 mm 1 mps 544 mmHg 84%
07:00 +14°C° 0.1 mm 1 mps 545 mmHg 80%
08:00 +16°C° 0.4 mm 1 mps 545 mmHg 73%
09:00 +17°C° 0.4 mm 2 mps 546 mmHg 67%
10:00 +19°C° 0.4 mm 2 mps 547 mmHg 61%
11:00 +19°C° 0.9 mm 3 mps 546 mmHg 59%
12:00 +20°C° 0.9 mm 3 mps 546 mmHg 56%
13:00 +21°C° 0.9 mm 3 mps 546 mmHg 54%
14:00 +20°C° 0.8 mm 3 mps 545 mmHg 56%
15:00 +20°C° 0.8 mm 3 mps 545 mmHg 58%
16:00 +20°C° 0.8 mm 3 mps 544 mmHg 60%
17:00 +18°C° 0.3 mm 3 mps 544 mmHg 68%
18:00 +16°C° 0.3 mm 2 mps 544 mmHg 76%
19:00 +15°C° 0.3 mm 2 mps 544 mmHg 84%
20:00 +15°C° 0.3 mm 2 mps 544 mmHg 86%
21:00 +14°C° 0.3 mm 2 mps 545 mmHg 88%
22:00 +14°C° 0.3 mm 2 mps 545 mmHg 90%
23:00 +13°C° 0.7 mm 2 mps 544 mmHg 89%
Show more